Location: Bay Creek Structure Number 5 Dam
(37.4851°N, 88.6884°W)
Time: 01:53:53
(UTC+00:00)

YAOGAN 6 - Pass Details

Date: 13 October 2019
Orbit: 465 x 506 km, 97.0° (Epoch: 17 November)

Event Time Altitude Azimuth Distance (km) Brightness Sun altitude
Rises 23:45:55 0° 148° (SSE) 2,593 6.0 -5.8°
Reaches altitude 10° 23:48:07 10° 139° (SE) 1,711 5.0 -6.2°
Maximum altitude 23:51:28 34° 74° (ENE) 849 3.3 -6.9°
Drops below altitude 10° 23:54:49 10° 8° (N) 1,710 5.2 -7.6°
Sets 23:57:01 0° 359° (N) 2,592 6.2 -8.0°
